Find the Weather for any City, State or Zip Code, or Country:


Mobile Weather


Questions? Comments?
Contact Greg


Winchester Trails
Subdivision Website


Current Maps

Tropical (Hurricane)

Temperature

Heat Index

Windchill

Humidity

Radar

Dew Point

Wind

Visibility

Visible Satellite

Satellite

Fronts

Jet Stream

Flight Rules


Forecast Maps

Temperature Forecast

Maximum Temperature Forecast

Minimum Temperature Forecast

Dewpoint Forecast

Prevalent Weather

12Hr Probability of Precip.

Sky Cover


Health Maps

Houston Pollen/Mold Report

UV Forecast

Air Quality

Peak Air Quality Index


Miscellaneous

NOAA Aviation Weather

NWS Houston/Galveston

National Weather Service (main page)

National Hurricane Center

NOAA Historical Hurricane Tracks

Wunderground
Hurricane Archive


Harris Co. Flood Warning System

Harris Co. Storm Risk Calculator

U.S. Drought Monitor

TX Lake/Reservoir Data & Levels

Eric 'SciGuy' Berger Weather Blog

Dr. Jeff Masters Weather Blog

Houston Traffic

TxDOT Highway Conditions

Houston Electricity Outage Tracker

Houston Bayport Cruise Terminal Webcam

Galveston CruiseCam


This Station's Data

NOAA-Style Reports

Weather Detail

Daily Tabular Data


This Station's Position:
Lat. 29° 54' 14.18" N
Lon. 95° 34' 24.45" W
Elevation 112 ft (34.1 m)


Visit this station's partner in Cypress, 8sm west of here!


Weather Instruments:


Vantage Pro 2


Current Weather Conditions

This page refreshes automatically every 5 minutes and is best viewed at 1024x768 or higher resolution.
Powered by Ambient Weather Virtual Weather Station V15.00

Page last refreshed Sat November 22, 2014 at 10:08 am CST (UTC -6) (2014-11-22 16:08 UTC/GMT/Zulu)

Metric & Other Conversions for Current Observations
Current Temp18.5 °CHigh Temp18.5 °CLow Temp15.8 °C
Current Dew Point16.3 °CHeat Index21.4 °CWind Chill18.5 °C
Barometer1017.65 mbarBarometer763.3 mmHgBarometer14.76 psi
Density Altitude:  423 ft (128.9 m)Pressure Altitude:  -7 ft (-2.1 m)
Barometer readings for a Standard Day (59.0 °F/15.0 °C @ sea level):  29.92" Hg, 1013.25 mbar, 757.83 mmHg, 14.70 psi


No Warnings, Watches, or Advisories for Harris and surrounding counties.


Local Radar Other Radar Graphics Local Satellite
Click for larger image WunderMap®

High Definition Radar (KHOU)

Regional Radar
Click for larger image
Radar & Satellite Graphics by Weather Underground




National Weather Service Forecast for: Jersey Village TX
Issued by: National Weather Service Houston, TX
Updated: 6:20 am CST Nov 22, 2014
 
Today

Severe T-Storms. Chance for Measurable Precipitation 90%
Severe
T-Storms
Tonight

Severe T-Storms. Chance for Measurable Precipitation 90%
Severe
T-Storms
Sunday

Sunny
Sunny
Sunday
Night

Mostly Clear
Mostly
Clear
Monday

Sunny
Sunny
Monday
Night

Mostly Clear
Mostly
Clear
Tuesday

Mostly Sunny
Mostly
Sunny
Tuesday
Night

Mostly Clear
Mostly
Clear
Wednesday

Sunny
Sunny
Hi 74 °F Lo 61 °F Hi 79 °F Lo 50 °F Hi 66 °F Lo 42 °F Hi 63 °F Lo 40 °F Hi 65 °F

Hazardous Weather Outlook
 

Today
 
A slight chance of showers, then showers and thunderstorms after noon. Some of the storms could be severe. High near 74. Southeast wind around 15 mph, with gusts as high as 20 mph. Chance of precipitation is 90%.
Tonight
 
Showers and thunderstorms, mainly before midnight. Some of the storms could be severe. Low around 61. Southeast wind 5 to 10 mph becoming southwest after midnight. Chance of precipitation is 90%.
Sunday
 
Sunny, with a high near 79. Southwest wind 10 to 15 mph.
Sunday Night
 
Mostly clear, with a low around 50. Southwest wind around 10 mph becoming north after midnight.
Monday
 
Sunny, with a high near 66. North wind 5 to 10 mph.
Monday Night
 
Mostly clear, with a low around 42.
Tuesday
 
Mostly sunny, with a high near 63.
Tuesday Night
 
Mostly clear, with a low around 40.
Wednesday
 
Sunny, with a high near 65.
Wednesday Night
 
Mostly clear, with a low around 44.
Thanksgiving Day
 
Sunny, with a high near 65.
Thursday Night
 
Mostly clear, with a low around 44.
Friday
 
Mostly sunny, with a high near 62.

 

Forecast from NOAA-NWS for Jersey Village TX.

Follow this link for a current verbose area forecast discussion from the NWS.
Forecast Script by Saratoga Weather | Animated icons by Meteo Treviglio


Radar and Satellite Imagery


US Current Fronts w/Radar

Southcentral Infrared Satellite

US Jet Stream

Visible Satellite
Click to go to WUnderground
Sea Surface Temp & Tropical System Map
Map Graphics by Weather Underground


Rainfall Information
Yesterday's Rain: 0.32 in
Last Rainfall:
Surrounding Area Rainfall Data
NOAA Avg. Rainfall For: Month to Date
(1971-2000)
Month to Date
(1981-2010)
Year to Date
(1971-2000)
Year to Date
(1981-2010)
Jersey Village: 3.3 in
(-0.72 in)
3.44 in
(-0.86 in)
45.18 in
(-7.03 in)
47.2 in
(-9.05 in)
Intercontinental (KIAH) 3.13 in 3.21 in 43.09 in 44.9 in
Hobby (KHOU) 3.43 in 3.22 in 49.07 in 49.52 in
NOTE:  The numbers in parenthesis under the Jersey Village data above indicate how far ahead (green) or behind (red) this station's rain total is compared to the NOAA 1971-2000 and 1981-2010 climate normals data for today's date (Nov 22).


Other Current Regional Observations (METARs)

(Ordered by straight-line statute mile distance from this weather station)

A Few More Observations/METARs of Interest to Greg


Weather Almanac

NOAA/NWS Daily Historical Weather Browser
Major SE Texas Weather Events

Records and Normals for Nov 22
Temperature Forecast Normal Record
High 73° 67° 83°
(1931)
Low 61°
45°
27°
(1984)
Highs & Lows Observed at This Station
  Today Yesterday For 11/2014 For 2014
High Temp 65.3°F at 10:06am 67.2°F at 12:45pm 81.7°F on 11/4/14 97.6°F on 9/11/14
Low Temp 60.5°F at 6:34am 61.3°F at 12:25am 32.6°F on 11/19/14 32.6°F on 11/19/14
High Dew Point 61.3°F at 10:06am 65.1°F at 12:45pm 68.4°F on 11/4/14 79.4°F on 9/16/14
Low Dew Point 57.9°F at 6:34am 59.0°F at 12:25am 17.5°F on 11/14/14 17.5°F on 11/14/14
High Humidity 92% at 7:00am 93% at 1:52am 96% on 11/6/14 96% on 11/6/14
Low Humidity 87% at 9:51am 89% at 8:32pm 32% on 11/18/14 32% on 10/15/14
High Heat Index 70.5°F at 10:06am 73.3°F at 12:45pm 84.2°F on 11/4/14 110.8°F on 9/10/14
High Barometer 30.03in at 12:00am 30.05in at 10:14am 30.45in on 11/18/14 30.45in on 11/18/14
Low Barometer 29.92in at 9:44am 29.97in at 2:29pm 29.69in on 11/10/14 29.60in on 10/13/14
High Wind Speed 7mph at 2:34am 9mph at 9:26pm 20mph on 11/17/14 27mph on 10/6/14
High Wind Gust 9mph at 12:58am 10mph at 9:26pm 20mph on 11/17/14 27mph on 10/6/14
Low Wind Chill 60.5°F at 6:34am 61.3°F at 12:25am 24.3°F on 11/13/14 24.3°F on 11/13/14

Sun & Moon
Sunrise:  6:53am Sunset:  5:24pm Moon Phase:
0%
Moonrise:  6:53am Moonset:  5:53pm
Star Chart...

 

Local Trend Graphs


MesoNet Local Weather Exchange® Network

Station ID

City 
(Click for Map Location)

Neighborhood 
(Click for History)
Last Update
(Date & Time)

Temp
 (°)

Dew
Point (°)
Humidity 
(%)
Wind 
(mph)
From
the
Gust
(mph) 
Pressure (in) Hourly
Rain (in)
KTXHOUST61 Houston Willow Point 11/22 10:00:04 65.3 36.0 34 4 East 4 29.94 0.00
KTXHOUST186 Houston Winchester Trails 11/22 09:59:58 64.7 61.0 87 2 South 7 30.05 0.00
KTXHOUST213 Houston 18220 Tomball Parkway 11/22 09:49:14 63.9 61.0 91 6 SW 10 29.85 0.00
KTXHOUST332 Houston Cutten Green Sec I 11/22 10:00:03 64.6 63.0 94 5 East 9 30.09 0.00
KTXHOUST178 Houston Schroeder Oaks Village 11/22 10:00:02 64.2 63.0 95 2 SE 11 30.00 0.00
KTXHOUST291 Houston Steeplechase 11/22 10:00:00 65.7 64.0 95 5 East 8 29.64 0.00
KTXHOUST216 Houston Cutten Green 11/22 09:59:50 63.0 62.0 95 2 SE 11 30.02 0.00
KTXHOUST232 Houston Rolling Fork 11/22 09:55:28 64.1 61.0 91 3 SSE 10 30.01 0.00
KTXHOUST349 Houston Champions Crossing 11/22 09:54:51 63.5 62.0 96 8 SE 0 29.84 0.00
KTXHOUST407 Houston Northside 11/22 07:01:22 61.9 61.0 98 0

North 0 30.16 0.00
KTXHOUST218 Houston Woodland Trails West 11/22 10:00:03 64.4 63.0 95 2 ESE 8 30.01 0.00
KTXHOUST121 Houston Norchester, K5WH 11/22 09:30:33 63.5 62.0 94 7 SSE 14 30.03 0.00
KTXHOUST170 Houston Champions Park 11/22 09:59:36 63.1 61.0 93 0 SSE 7 30.02 0.00
KTXTEXAS12 Texas FM 1960 11/22 09:55:35 63.9 64.0 99 4 SSE 0 30.00 0.00
KTXHOUST342 Houston Lakewood Forest at Cypresswood 11/22 09:59:42 65.3 63.0 92 2 SE 2 29.80 0.00
KTXHOUST233 Houston Woods of Wimbledon 11/22 09:59:59 64.0 60.0 88 3 ENE 3 30.03 0.00
KTXHOUST352 Houston Villa Toscana 11/22 09:59:51 66.2 62.0 87 2 North 6 29.99 0.00
KTXHOUST260 Houston Villages at Lakepointe 11/22 10:00:01 67.3 63.0 87 4 NE 9 30.10 0.00
KTXHOUST169 Houston Lakewood Forest 11/22 10:00:05 63.3 62.0 94 0 East 3 30.04 0.00
KTXHOUST261 Cypress Heatherwood Village 11/22 09:53:59 66.7 65.0 93 3 SE 4 29.47 0.00
KTXSPRIN88 Spring Champions Woods 11/22 09:51:47 65.3 63.0 92 3 WNW 0 29.75 0.00
KTXCYPRE11 Cypress Weiser Airpark 11/22 10:00:00 66.7 61.0 83 4 East 4 30.05 0.00
KTXCYPRE4 Cypress Moore Weather 11/22 09:55:20 64.3 62.0 93 1 ENE 2 30.01 0.00
KTXCYPRE42 Cypress Great Oaks 11/22 09:55:42 64.8 62.0 91 4 ENE 4 30.03 0.00
KTXCYPRE79 Cypress Cypress Chase 11/22 09:59:42 66.2 62.0 85 6 ESE 7 30.03 0.00
KTXHOUST271 Houston Middlegate Village 11/22 10:00:02 67.5 64.0 88 2 East 7 29.83 0.00
KTXCYPRE5 Cypress NW Houston (Wincrest Falls) 11/22 10:00:05 64.0 61.0 89 0 ESE 1 29.95 0.00
KTXSPRIN9 Spring Wimbledon 11/22 09:59:57 63.4 61.0 91 1 SE 4 29.93 0.00
KTXSPRIN105 Spring Wimbledon Estates & Racquet Club 11/22 09:57:24 63.7 58.0 80 0 North 0 30.01 0.00
KTXTOMBA9 Tomball Spring Cypress/Eldridge 11/22 09:59:42 65.3 62.0 89 1 NW 12 30.05 0.00
KTXHOUST29 Houston Concord Colony - K5EBQ 11/22 09:46:51 65.3 63.0 92 2 East 0 30.05 0.00
KTXSPRIN83 Spring Memorial NorthWest 11/22 10:00:02 67.5 63.0 85 2 West 7 29.65 0.00
KTXHOUST265 Houston Spring Shadows 11/22 09:52:40 64.6 62.0 91 0 SE 13 30.02 0.00
KTXCYPRE80 Cypress Longwood 11/22 09:52:24 62.6 62.0 98 0 North 0 30.13 0.00
KDWH Houston Hooks Official Station 11/22 09:53:00 64.0 60.0 87 8 East --- 30.05 ---
KIAH Houston Intercontinental Official Station 11/22 09:53:00 64.0 60.0 87 12 ESE --- 30.05 ---
KMCJ Houston / Dunn Helistop Official Station 11/22 09:35:00 64.0 59.0 83 21 East --- 30.01 ---
KSGR Houston Hull Official Station 11/22 09:53:00 66.0 62.0 87 9 ESE --- 30.03 ---
KTXCYPRE54 Cypress Canyon Lakes West 11/22 10:00:06 66.4 63.0 90 9 ESE 17 30.11 0.00
KTXHOUST197 Cypress Canyon Lakes West 66.7 66.7 63.0 88 3 SSW 12 29.95 0.00